Time,TemperatureF,DewpointF,PressureIn,WindDirection,WindDirectionDegrees,WindSpeedMPH,WindSpeedGustMPH,Humidity,HourlyPrecipIn,Conditions,Clouds,dailyrainin,SolarRadiationWatts/m^2,SoftwareType,DateUTC
2016-02-11 00:03:00,55.0,49.3,30.12,West,274,0.0,0.0,81,0.00,CLR,,0.00,0.0,WeatherDisplay:10.37,2016-02-11 08:03:00,
2016-02-11 00:08:00,54.7,48.6,30.12,West,274,0.0,0.0,80,0.00,CLR,,0.00,0.0,WeatherDisplay:10.37,2016-02-11 08:08:00,
2016-02-11 00:13:00,54.5,48.8,30.12,West,274,0.0,0.0,81,0.00,CLR,,0.00,0.0,WeatherDisplay:10.37,2016-02-11 08:13:00,
2016-02-11 00:18:00,54.4,48.7,30.12,West,274,0.0,0.0,81,0.00,CLR,,0.00,0.0,WeatherDisplay:10.37,2016-02-11 08:18:00,
2016-02-11 00:23:00,54.2,48.5,30.12,West,274,0.0,0.0,81,0.00,CLR,,0.00,0.0,WeatherDisplay:10.37,2016-02-11 08:23:00,
2016-02-11 00:28:00,54.1,48.4,30.12,West,274,0.0,0.0,81,0.00,CLR,,0.00,0.0,WeatherDisplay:10.37,2016-02-11 08:28:00,
2016-02-11 00:33:00,53.6,47.9,30.12,West,274,0.0,0.0,81,0.00,CLR,,0.00,0.0,WeatherDisplay:10.37,2016-02-11 08:33:00,
2016-02-11 00:38:00,53.3,47.6,30.12,West,274,0.0,0.0,81,0.00,CLR,,0.00,0.0,WeatherDisplay:10.37,2016-02-11 08:38:00,
2016-02-11 00:43:00,53.2,47.8,30.12,West,274,0.0,0.0,82,0.00,CLR,,0.00,0.0,WeatherDisplay:10.37,2016-02-11 08:43:00,
2016-02-11 00:48:00,53.1,47.7,30.12,West,274,0.0,0.0,82,0.00,CLR,,0.00,0.0,WeatherDisplay:10.37,2016-02-11 08:48:00,
2016-02-11 00:53:00,53.2,48.2,30.12,West,274,0.0,0.0,83,0.00,CLR,,0.00,0.0,WeatherDisplay:10.37,2016-02-11 08:53:00,
2016-02-11 00:58:00,53.5,48.5,30.12,West,274,0.0,0.0,83,0.00,CLR,,0.00,0.0,WeatherDisplay:10.37,2016-02-11 08:58:00,
2016-02-11 01:03:00,53.5,48.1,30.11,West,274,0.0,0.0,82,0.00,CLR,,0.00,0.0,WeatherDisplay:10.37,2016-02-11 09:03:00,
2016-02-11 01:08:00,53.3,48.3,30.11,West,274,0.0,0.0,83,0.00,CLR,,0.00,0.0,WeatherDisplay:10.37,2016-02-11 09:08:00,
2016-02-11 01:13:00,53.5,48.5,30.11,West,274,0.0,0.0,83,0.00,CLR,,0.00,0.0,WeatherDisplay:10.37,2016-02-11 09:13:00,
2016-02-11 01:18:00,53.5,48.1,30.11,West,274,0.0,0.0,82,0.00,CLR,,0.00,0.0,WeatherDisplay:10.37,2016-02-11 09:18:00,
2016-02-11 01:23:00,52.9,47.2,30.11,West,274,0.0,0.0,81,0.00,CLR,,0.00,0.0,WeatherDisplay:10.37,2016-02-11 09:23:00,
2016-02-11 01:28:00,52.6,46.9,30.11,West,274,0.0,0.0,81,0.00,CLR,,0.00,0.0,WeatherDisplay:10.37,2016-02-11 09:28:00,
2016-02-11 01:33:00,52.3,47.0,30.11,West,274,0.0,0.0,82,0.00,CLR,,0.00,0.0,WeatherDisplay:10.37,2016-02-11 09:33:00,
2016-02-11 01:38:00,52.2,46.9,30.11,West,274,0.0,0.0,82,0.00,CLR,,0.00,0.0,WeatherDisplay:10.37,2016-02-11 09:38:00,
2016-02-11 01:43:00,52.0,46.7,30.11,West,274,0.0,0.0,82,0.00,CLR,,0.00,0.0,WeatherDisplay:10.37,2016-02-11 09:43:00,